Wellsville, NY

8:55 PM EST on December 13, 2017 (GMT -0500)
Wellsville Municipal-Tarantine

Weather History for KELZ - June, 2012

Change the Weather History Date:

Tuesday, June 19, 2012

  Actual Average (KDSV) Record (KDSV)
Temperature  
Mean Temperature 72 °F -  
Max Temperature 84 °F 79 °F 98 °F (1957)
Min Temperature 61 °F 55 °F 40 °F (1950)
Cooling Degree Days 8    
Growing Degree Days 22 (Base 50)    
Moisture  
Dew Point 64 °F    
Average Humidity 75    
Maximum Humidity 94    
Minimum Humidity 55    
Precipitation  
Precipitation 0.00 in - - ()
Sea Level Pressure  
Sea Level Pressure 30.10 in    
Wind  
Wind Speed 7 mph (SW)    
Max Wind Speed 12 mph    
Max Gust Speed 18 mph    
Visibility 8 miles    
Events      
Averages and records for this station are not official NWS values.
T = Trace of Precipitation, MM = Missing Value Source: NWS Daily Summary

Daily Weather History Graph

Daily Weather History Graph

Search for Another Location

Airport or City:

Trip Planner

Search our weather history database for the weather conditions in past years. The results will help you decide how hot, cold, wet, or windy it might be!

Date:

Astronomy

Jun. 19, 2012 Rise Set
Actual Time 5:35 AM EDT 8:51 PM EDT
Civil Twilight 5:01 AM EDT 9:25 PM EDT
Nautical Twilight 4:16 AM EDT 10:10 PM EDT
Astronomical Twilight 3:22 AM EDT 11:04 PM EDT
Moon 5:39 AM EDT (6/19) 8:53 PM EDT (6/19)
Length of Visible Light 16h 24m
Length of Day
15h 15m
New Moon, 0% of the Moon is Illuminated
Jun 19
New Moon
Jun 26
First Quarter
Jul 3
Full
Jul 10
Last Quarter
Jul 19
New

Hourly Weather History & Observations

Time (EDT) Temp. Heat Index Dew Point Humidity Pressure Visibility Wind Dir Wind Speed Gust Speed Precip Events Conditions
12:56 AM 61.0 °F - 59.0 °F 93% 30.07 in 7.0 mi South 5.8 mph - N/A   Overcast
1:56 AM 62.1 °F - 59.0 °F 90% 30.07 in 5.0 mi South 8.1 mph - N/A   Overcast
2:56 AM 62.1 °F - 60.1 °F 93% 30.07 in 6.0 mi Calm Calm - N/A   Overcast
3:56 AM 63.0 °F - 60.1 °F 90% 30.07 in 7.0 mi Calm Calm - N/A   Overcast
4:56 AM 62.1 °F - 60.1 °F 93% 30.07 in 5.0 mi SSE 9.2 mph - N/A   Overcast
5:04 AM 62.6 °F - 60.8 °F 94% 30.10 in 4.0 mi South 6.9 mph - N/A   Overcast
5:56 AM 63.0 °F - 60.1 °F 90% 30.09 in 5.0 mi SSW 6.9 mph - N/A   Overcast
6:08 AM 62.6 °F - 60.8 °F 94% 30.11 in 5.0 mi SSW 6.9 mph - N/A   Overcast
6:56 AM 64.0 °F - 61.0 °F 90% 30.09 in 7.0 mi Variable 5.8 mph - N/A   Overcast
7:56 AM 64.9 °F - 61.0 °F 87% 30.10 in 9.0 mi SSW 6.9 mph - N/A   Overcast
8:56 AM 69.1 °F - 63.0 °F 81% 30.10 in 9.0 mi SSW 9.2 mph - N/A   Overcast
9:56 AM 71.1 °F - 63.0 °F 75% 30.10 in 9.0 mi SSW 10.4 mph 17.3 mph N/A   Overcast
10:03 AM 71.6 °F - 64.4 °F 78% 30.13 in 9.0 mi SW 11.5 mph 18.4 mph N/A   Overcast
10:56 AM 73.0 °F - 64.9 °F 76% 30.10 in 9.0 mi SSW 6.9 mph - N/A   Overcast
11:35 AM 75.2 °F - 64.4 °F 69% 30.12 in 10.0 mi SW 8.1 mph - N/A   Mostly Cloudy
11:45 AM 77.0 °F - 66.2 °F 69% 30.12 in 10.0 mi South 10.4 mph - N/A   Scattered Clouds
11:56 AM 78.1 °F - 66.9 °F 68% 30.09 in 10.0 mi SSW 8.1 mph - N/A   Clear
12:56 PM 81.0 °F 83.8 °F 68.0 °F 65% 30.10 in 10.0 mi SW 10.4 mph 17.3 mph N/A   Partly Cloudy
1:56 PM 82.9 °F 85.0 °F 66.0 °F 56% 30.09 in 10.0 mi WSW 8.1 mph 18.4 mph N/A   Scattered Clouds
2:56 PM 84.0 °F 86.3 °F 66.0 °F 55% 30.08 in 10.0 mi West 10.4 mph 17.3 mph N/A   Partly Cloudy
3:56 PM 82.9 °F 85.0 °F 66.0 °F 56% 30.08 in 10.0 mi West 8.1 mph - N/A   Scattered Clouds
4:56 PM 84.0 °F 86.3 °F 66.0 °F 55% 30.08 in 10.0 mi West 10.4 mph - N/A   Partly Cloudy
5:56 PM 82.0 °F 84.1 °F 66.0 °F 58% 30.09 in 10.0 mi West 8.1 mph - N/A   Mostly Cloudy
6:56 PM 82.0 °F 84.5 °F 66.9 °F 60% 30.09 in 10.0 mi West 5.8 mph - N/A   Clear
7:56 PM 79.0 °F - 66.9 °F 66% 30.11 in 10.0 mi West 4.6 mph - N/A   Clear
8:56 PM 77.0 °F - 64.9 °F 66% 30.10 in 10.0 mi SW 4.6 mph - N/A   Clear
9:56 PM 75.9 °F - 64.0 °F 67% 30.12 in 10.0 mi WSW 4.6 mph - N/A   Clear
10:56 PM 73.9 °F - 64.0 °F 71% 30.12 in 10.0 mi SW 8.1 mph - N/A   Clear
11:56 PM 75.0 °F - 63.0 °F 66% 30.12 in 10.0 mi WSW 6.9 mph - N/A   Clear